Flag Weather past 2 weeks in Salem, Oregon, U.S.A.

Now
59 °F

Sunny.


Feels Like: 58 °F
Forecast: 53 / 56 °F
Wind: 8 mph from South

Location: McNary Field

Current Time: Nov 26, 2014 at 4:44:23 PM

Latest Report: Nov 26, 2014 at 3:56 PM


Visibility: 10 mi

Pressure: 30.06 "Hg

Humidity: 69%

Dew point: 49 °F

Location of SalemLocation

Historic Weather in Salem — Graph

°F

Salem temperature yesterday

Maximum temperature yesterday: 62 °F (at 12:56 PM)
Minimum temperature yesterday: 55 °F (at 12:56 AM)
Average temperature yesterday: 58 °F

Past Weeks' High & Low Weather Summary

 TemperatureHumidityPressure
High62 °F (Nov 25, 12:56 PM)97% (Nov 20, 7:56 PM)30.43 "Hg (Nov 20, 7:56 PM)
Low22 °F (Nov 16, 5:56 AM)29% (Nov 11, 3:56 PM)29.49 "Hg (Nov 21, 6:56 PM)
Average42 °F72%30.13 "Hg
* Reported Nov 11 2:56 PM — Nov 26 2:56 PM, Salem, Weather by CustomWeather, © 2014

Note: Actual official high and low records may vary slightly from our data, if they occured in-between our weather recording intervals... More about our weather records

Advertising

Salem weather history for previous 24 hours

 ConditionsComfort  
Time TempWeatherWind HumidityBarometerVisibility
2:56 PM
Nov 26
60 °FSunny.9 mph67%30.08 "Hg10 mi
1:56 PM61 °FSunny.10 mph65%30.09 "Hg10 mi
12:56 PM62 °FSunny.10 mph62%30.10 "Hg10 mi
11:56 AM60 °FSunny.16 mph65%30.12 "Hg10 mi
10:56 AM59 °FSunny.10 mph67%30.16 "Hg10 mi
9:56 AM57 °FSunny.5 mph78%30.16 "Hg10 mi
8:56 AM53 °FSunny.7 mph89%30.16 "Hg10 mi
7:56 AM52 °FScattered clouds.6 mph89%30.19 "Hg10 mi
6:56 AM54 °FPassing clouds.12 mph83%30.19 "Hg10 mi
5:56 AM55 °FOvercast.8 mph83%30.20 "Hg10 mi
4:56 AM54 °FPassing clouds.7 mph86%30.22 "Hg10 mi
3:56 AM55 °FPassing clouds.9 mph83%30.24 "Hg10 mi
2:56 AM56 °FOvercast.9 mph81%30.27 "Hg10 mi
1:56 AM57 °FOvercast.10 mph81%30.27 "Hg10 mi
12:56 AM57 °FOvercast.9 mph81%30.28 "Hg10 mi
11:56 PM
Nov 25
58 °FOvercast.6 mph84%30.29 "Hg10 mi
10:56 PM57 °FOvercast.8 mph87%30.28 "Hg10 mi
9:56 PM58 °FOvercast.8 mph84%30.30 "Hg10 mi
8:56 PM58 °FOvercast.9 mph84%30.29 "Hg10 mi
7:56 PM58 °FOvercast.7 mph84%30.31 "Hg10 mi
6:56 PM59 °FPassing clouds.10 mph84%30.31 "Hg10 mi
5:56 PM59 °FMostly cloudy.7 mph84%30.32 "Hg10 mi
4:56 PM60 °FMostly cloudy.9 mph83%30.33 "Hg10 mi
Weather by CustomWeather, © 2014

See weather overviewHow to use our weather pages